GW5357 Weather Reports


Display with metric or nautical units.
time (UTC)temp
F
wind
direction
speed
MPH
gust
MPH
rain 1hr
in
rain 24hr
in
rain mn
in
humidity
%
barometer
mb
20260902024004 65 148 2.0 6.0 0.00 0.00 0.00 72 1008.9
20260902023503 65 126 2.0 5.0 0.00 0.00 0.00 71 1008.9
20260902023004 65 161 3.0 5.0 0.00 0.00 0.00 71 1008.9
20260902022504 65 154 2.0 5.0 0.00 0.00 0.00 71 1008.9
20260902022004 65 108 2.0 4.0 0.00 0.00 0.00 71 1008.9
20260902021504 65 178 1.0 5.0 0.00 0.00 0.00 71 1008.9
20260902021003 65 138 2.0 5.0 0.00 0.00 0.00 71 1008.9
20260902020007 65 135 2.0 5.0 0.00 0.00 0.00 71 1009.0
20260902015505 65 115 2.0 6.0 0.00 0.00 0.00 70 1009.1
20260902015004 65 173 4.0 6.0 0.00 0.00 0.00 71 1009.1
20260902014504 65 165 3.0 10.0 0.00 0.00 0.00 72 1009.1
20260902014004 65 144 4.0 10.0 0.00 0.00 0.00 72 1009.1
20260902013503 65 120 3.0 10.0 0.00 0.00 0.00 73 1009.1
20260902013005 65 117 3.0 5.0 0.00 0.00 0.00 73 1009.0
20260902012506 65 129 2.0 5.0 0.00 0.00 0.00 74 1009.0
20260902012005 64 117 1.0 4.0 0.00 0.00 0.00 74 1009.0
20260902011505 64 314 1.0 7.0 0.00 0.00 0.00 73 1009.0
20260902011004 64 314 3.0 7.0 0.00 0.00 0.00 72 1008.9
20260902010505 65 340 2.0 5.0 0.00 0.00 0.00 72 1008.8
20260902005504 65 319 2.0 6.0 0.00 0.00 0.00 72 1009.0
20260902005004 65 257 2.0 7.0 0.00 0.00 0.00 73 1008.9
20260902004004 65 331 2.0 5.0 0.00 0.00 0.00 72 1008.9
20260902003504 65 206 2.0 7.0 0.00 0.00 0.00 72 1008.8
20260902002504 65 122 2.0 5.0 0.00 0.00 0.00 72 1008.8
20260902002003 65 126 1.0 6.0 0.00 0.00 0.00 71 1008.8
20260902001504 65 139 3.0 6.0 0.00 0.00 0.00 71 1008.8
20260902000504 66 197 2.0 5.0 0.00 0.00 0.00 70 1008.9
20260902000007 66 63 2.0 5.0 0.00 0.00 0.00 70 1008.9
20260901235503 66 296 2.0 5.0 0.00 0.00 0.00 72 1008.9
20260901235003 66 1 2.0 6.0 0.00 0.00 0.00 72 1009.0
20260901234504 66 219 2.0 6.0 0.00 0.00 0.00 73 1008.9
20260901234004 67 124 2.0 6.0 0.00 0.00 0.00 73 1008.9
20260901233503 67 212 2.0 8.0 0.00 0.00 0.00 72 1008.9
20260901233004 67 300 3.0 8.0 0.00 0.00 0.00 72 1008.9
20260901232004 67 149 2.0 9.0 0.00 0.00 0.00 69 1008.8
20260901231504 67 165 3.0 9.0 0.00 0.00 0.00 69 1008.8
20260901231004 68 147 3.0 10.0 0.00 0.00 0.00 68 1008.8
20260901230503 68 89 3.0 10.0 0.00 0.00 0.00 66 1008.8
20260901225504 68 152 5.0 12.0 0.00 0.00 0.00 67 1008.6
20260901225004 69 152 6.0 11.0 0.00 0.00 0.00 65 1008.8
20260901224504 70 178 3.0 10.0 0.00 0.00 0.00 66 1008.8
20260901223503 68 241 5.0 13.0 0.00 0.00 0.00 68 1008.8
20260901223004 68 123 6.0 11.0 0.00 0.00 0.00 68 1008.8
20260901222004 69 117 5.0 11.0 0.00 0.00 0.00 68 1008.7
20260901221004 69 121 3.0 11.0 0.00 0.00 0.00 67 1008.9
20260901220504 69 159 4.0 11.0 0.00 0.00 0.00 67 1009.1
20260901220009 69 108 4.0 10.0 0.00 0.00 0.00 69 1009.1
20260901215503 68 223 3.0 9.0 0.00 0.00 0.00 70 1009.1
20260901215004 67 349 4.0 11.0 0.00 0.00 0.00 72 1009.1
20260901214503 67 144 4.0 11.0 0.00 0.00 0.00 73 1009.1
20260901214005 67 120 4.0 11.0 0.00 0.00 0.00 72 1009.2
20260901213503 67 81 4.0 11.0 0.00 0.00 0.00 72 1009.3
20260901213005 67 286 3.0 10.0 0.00 0.00 0.00 73 1009.3
20260901212004 66 46 4.0 11.0 0.00 0.00 0.00 74 1009.3
20260901211503 66 135 4.0 11.0 0.00 0.00 0.00 73 1009.3
20260901211003 66 137 5.0 11.0 0.00 0.00 0.00 73 1009.4
20260901210503 66 144 3.0 9.0 0.00 0.00 0.00 73 1009.5
20260901210006 66 191 4.0 11.0 0.00 0.00 0.00 74 1009.6
20260901205504 66 188 3.0 11.0 0.00 0.00 0.00 74 1009.6
20260901205005 66 161 6.0 11.0 0.00 0.00 0.00 72 1009.6
20260901204504 66 178 4.0 10.0 0.00 0.00 0.00 73 1009.5
20260901204004 66 102 4.0 11.0 0.00 0.00 0.00 74 1009.4
20260901203503 66 150 4.0 11.0 0.00 0.00 0.00 74 1009.4
20260901203004 65 185 5.0 11.0 0.00 0.00 0.00 74 1009.5
20260901202004 66 113 4.0 11.0 0.00 0.00 0.00 72 1009.4
20260901201504 67 123 5.0 10.0 0.00 0.00 0.00 71 1009.4
20260901200503 67 269 4.0 10.0 0.00 0.00 0.00 71 1009.3
20260901200007 67 333 4.0 12.0 0.00 0.00 0.00 70 1009.4
20260901195503 68 178 4.0 12.0 0.00 0.00 0.00 69 1009.3
20260901195005 68 269 2.0 10.0 0.00 0.00 0.00 72 1009.3
20260901194503 67 305 4.0 10.0 0.00 0.00 0.00 72 1009.3
20260901194004 67 191 2.0 11.0 0.00 0.00 0.00 72 1009.4
20260901193503 67 152 3.0 11.0 0.00 0.00 0.00 73 1009.3
20260901193004 67 163 3.0 12.0 0.00 0.00 0.00 73 1009.4
20260901192504 67 354 4.0 12.0 0.00 0.00 0.00 71 1009.3
20260901191504 67 206 4.0 9.0 0.00 0.00 0.00 72 1009.3
20260901191004 67 197 4.0 14.0 0.00 0.00 0.00 72 1009.4
20260901190007 66 138 3.0 10.0 0.00 0.00 0.00 73 1009.3
20260901185505 66 279 3.0 9.0 0.00 0.00 0.00 73 1009.4
20260901185004 66 1 3.0 11.0 0.00 0.00 0.00 73 1009.3
20260901184504 65 210 5.0 11.0 0.00 0.00 0.00 73 1009.4
20260901184005 66 28 3.0 8.0 0.00 0.00 0.00 74 1009.4
20260901183504 65 269 3.0 8.0 0.00 0.00 0.00 73 1009.5
20260901183004 65 15 2.0 9.0 0.00 0.00 0.00 74 1009.5
20260901182503 65 306 3.0 9.0 0.00 0.00 0.00 75 1009.5
20260901182004 65 133 4.0 7.0 0.00 0.00 0.00 74 1009.6
20260901181504 64 161 4.0 8.0 0.00 0.00 0.00 74 1009.6
20260901181004 64 178 3.0 9.0 0.00 0.00 0.00 73 1009.7
20260901180504 64 152 4.0 9.0 0.00 0.00 0.00 75 1009.5
20260901180007 64 211 2.0 8.0 0.00 0.00 0.00 75 1009.7
20260901175503 64 199 3.0 8.0 0.00 0.00 0.00 75 1009.7
20260901175004 64 295 2.0 8.0 0.00 0.00 0.00 76 1009.6
20260901174504 63 223 2.0 8.0 0.00 0.00 0.00 78 1009.6
20260901174005 63 281 3.0 9.0 0.00 0.00 0.00 78 1009.5
20260901173504 63 178 4.0 9.0 0.00 0.00 0.00 77 1009.5
20260901173004 63 171 2.0 7.0 0.00 0.00 0.00 78 1009.6
20260901172503 63 144 3.0 8.0 0.00 0.00 0.00 77 1009.6
20260901172004 62 135 3.0 8.0 0.00 0.00 0.00 77 1009.6
20260901171504 62 117 3.0 10.0 0.00 0.00 0.00 79 1009.6
20260901171004 62 213 3.0 10.0 0.00 0.00 0.00 79 1009.6
20260901170504 62 186 3.0 7.0 0.00 0.00 0.00 79 1009.5
20260901170006 62 120 2.0 8.0 0.00 0.00 0.00 81 1009.6
20260901165504 62 156 4.0 8.0 0.00 0.00 0.00 81 1009.6
20260901165004 61 303 1.0 6.0 0.00 0.00 0.00 82 1009.6
20260901164504 61 178 2.0 5.0 0.00 0.00 0.00 83 1009.6
20260901164003 61 163 2.0 5.0 0.00 0.00 0.00 83 1009.6
20260901163504 61 96 2.0 5.0 0.00 0.00 0.00 84 1009.7
20260901163005 61 309 1.0 4.0 0.00 0.00 0.00 84 1009.6
20260901162504 60 46 1.0 5.0 0.00 0.00 0.00 85 1009.6
20260901162005 60 234 2.0 5.0 0.00 0.00 0.00 85 1009.6
20260901161504 60 46 2.0 6.0 0.00 0.00 0.00 86 1009.6
20260901161005 60 185 1.0 6.0 0.00 0.00 0.00 87 1009.7
20260901160504 59 122 1.0 5.0 0.00 0.00 0.00 88 1009.6
20260901155503 59 178 1.0 4.0 0.00 0.00 0.00 90 1009.6
20260901155004 59 336 2.0 4.0 0.00 0.00 0.00 92 1009.6
20260901154503 58 46 1.0 2.0 0.00 0.00 0.00 92 1009.6
20260901154004 58 314 1.0 2.0 0.00 0.00 0.00 93 1009.7
20260901153503 58 321 1.0 2.0 0.00 0.00 0.00 94 1009.7
20260901153005 57 46 1.0 2.0 0.00 0.00 0.00 94 1009.6
20260901152503 57 321 1.0 2.0 0.00 0.00 0.00 94 1009.5
20260901152004 57 135 0.0 2.0 0.00 0.00 0.00 95 1009.6
20260901151504 56 46 1.0 2.0 0.00 0.00 0.00 95 1009.5
20260901151003 56 1 1.0 2.0 0.00 0.00 0.00 95 1009.6
20260901150503 56 35 1.0 2.0 0.00 0.00 0.00 95 1009.6
20260901150004 55 135 1.0 2.0 0.00 0.00 0.00 95 1009.6
20260901145503 55 108 1.0 2.0 0.00 0.00 0.00 95 1009.6
20260901145003 54 46 0.0 2.0 0.00 0.00 0.00 95 1009.5
20260901144504 54 46 0.0 2.0 0.00 0.00 0.00 95 1009.4
20260901144004 54 1 1.0 2.0 0.00 0.00 0.00 95 1009.4
20260901143503 53 46 0.0 1.0 0.00 0.00 0.00 95 1009.4
20260901143004 53 135 0.0 2.0 0.00 0.00 0.00 95 1009.3
20260901142503 53 340 0.0 2.0 0.00 0.00 0.00 95 1009.3
20260901142003 53 135 1.0 2.0 0.00 0.00 0.00 95 1009.4
20260901141003 53 89 0.0 2.0 0.00 0.00 0.00 95 1009.3
20260901140503 52 135 1.0 2.0 0.00 0.00 0.00 95 1009.2
20260901140007 52 135 1.0 2.0 0.00 0.00 0.00 94 1009.1
20260901135504 52 314 0.0 1.0 0.00 0.00 0.00 94 1008.9
20260901135003 52 314 0.0 1.0 0.00 0.00 0.00 94 1008.8
20260901134504 52 303 1.0 1.0 0.00 0.00 0.00 94 1008.8
20260901133504 52 1 0.0 2.0 0.00 0.00 0.00 94 1008.8
20260901133004 52 46 1.0 2.0 0.00 0.00 0.00 94 1008.9
20260901132501 52 314 1.0 2.0 0.00 0.00 0.00 94 1008.8
20260901132003 52 324 1.0 2.0 0.00 0.00 0.00 94 1008.6
20260901131503 52 314 1.0 2.0 0.00 0.00 0.00 94 1008.7
20260901131004 52 89 1.0 1.0 0.00 0.00 0.00 94 1008.8
20260901130503 52 1 0.0 1.0 0.00 0.00 0.00 94 1008.7
20260901130004 52 46 0.0 2.0 0.00 0.00 0.00 94 1008.8
20260901125503 52 331 1.0 2.0 0.00 0.00 0.00 94 1008.6
20260901125003 52 314 0.0 2.0 0.00 0.00 0.00 94 1008.7
20260901124504 52 314 1.0 2.0 0.00 0.00 0.00 94 1008.7
20260901124004 52 269 1.0 2.0 0.00 0.00 0.00 94 1008.6
20260901123503 52 324 1.0 2.0 0.00 0.00 0.00 94 1008.8
20260901123004 52 331 1.0 2.0 0.00 0.00 0.00 94 1008.7
20260901122502 52 314 1.0 2.0 0.00 0.00 0.00 94 1008.7
20260901122004 52 303 1.0 2.0 0.00 0.00 0.00 94 1008.6
20260901121004 52 314 0.0 2.0 0.00 0.00 0.00 94 1008.6
20260901120501 52 344 1.0 2.0 0.00 0.00 0.00 94 1008.6
20260901120006 52 331 1.0 2.0 0.00 0.00 0.00 94 1008.7
20260901115503 52 324 1.0 2.0 0.00 0.00 0.00 94 1008.7
20260901115004 52 331 1.0 2.0 0.00 0.00 0.00 94 1008.8
20260901114503 52 314 1.0 2.0 0.00 0.00 0.00 94 1008.8
20260901113504 52 340 1.0 2.0 0.00 0.00 0.00 93 1008.8
20260901112500 52 1 0.0 2.0 0.00 0.00 0.00 94 1008.9
20260901112000 52 314 1.0 2.0 0.00 0.00 0.00 94 1008.8
20260901111503 52 1 1.0 2.0 0.00 0.00 0.00 94 1008.8
20260901111000 52 336 2.0 2.0 0.00 0.00 0.00 94 1008.8
20260901110500 52 331 1.0 2.0 0.00 0.00 0.00 94 1008.9
20260901110004 52 314 1.0 2.0 0.00 0.00 0.00 93 1008.9
20260901105503 53 324 1.0 2.0 0.00 0.00 0.00 93 1008.9
20260901104504 53 314 1.0 2.0 0.00 0.00 0.00 93 1008.9
20260901104003 53 331 1.0 2.0 0.00 0.00 0.00 93 1009.0
20260901103502 53 314 1.0 2.0 0.00 0.00 0.00 93 1008.9
20260901103005 53 324 1.0 2.0 0.00 0.00 0.00 93 1009.0
20260901102504 53 331 1.0 2.0 0.00 0.00 0.00 93 1009.0
20260901102004 53 1 1.0 2.0 0.00 0.00 0.00 93 1009.0
20260901101504 53 269 1.0 2.0 0.00 0.00 0.00 93 1008.9
20260901100503 53 331 0.0 1.0 0.00 0.00 0.00 93 1008.9
20260901100008 53 1 0.0 2.0 0.00 0.00 0.00 93 1008.9
20260901095502 53 314 1.0 2.0 0.00 0.00 0.00 93 1009.0
20260901095003 53 340 1.0 2.0 0.00 0.00 0.00 93 1008.9
20260901094503 53 344 1.0 2.0 0.00 0.00 0.00 93 1009.0
20260901093504 53 324 1.0 2.0 0.00 0.00 0.00 93 1008.9
20260901092503 53 340 1.0 2.0 0.00 0.00 0.00 93 1008.9
20260901092004 53 324 1.0 2.0 0.00 0.00 0.00 93 1008.9
20260901091503 53 314 1.0 2.0 0.00 0.00 0.00 93 1008.8
20260901091003 53 340 1.0 2.0 0.00 0.00 0.00 93 1008.9
20260901090503 54 314 0.0 1.0 0.00 0.00 0.00 93 1008.9
20260901090007 54 324 1.0 1.0 0.00 0.00 0.00 92 1009.0
20260901085500 54 1 1.0 1.0 0.00 0.00 0.00 92 1008.9
20260901085003 54 314 0.0 1.0 0.00 0.00 0.00 93 1008.9
20260901084502 54 89 0.0 1.0 0.00 0.00 0.00 93 1008.9
20260901083500 54 1 1.0 2.0 0.00 0.00 0.00 93 1008.9
20260901082004 54 331 1.0 2.0 0.00 0.00 0.00 92 1008.9
20260901081503 55 314 1.0 2.0 0.00 0.00 0.00 93 1008.9
20260901081004 55 340 1.0 2.0 0.00 0.00 0.00 93 1008.9
20260901080503 55 314 1.0 2.0 0.00 0.00 0.00 93 1008.8
20260901080005 55 331 1.0 2.0 0.00 0.00 0.00 92 1008.9
20260901075004 55 296 0.0 2.0 0.00 0.00 0.00 92 1008.8
20260901074503 55 324 1.0 2.0 0.00 0.00 0.00 92 1008.8
20260901074004 55 314 1.0 2.0 0.00 0.00 0.00 92 1008.8
20260901072503 55 314 1.0 2.0 0.00 0.00 0.00 92 1008.9
20260901072003 55 1 1.0 2.0 0.00 0.00 0.00 92 1009.0
20260901071503 55 331 0.0 1.0 0.00 0.00 0.00 91 1009.0
20260901071004 55 46 0.0 1.0 0.00 0.00 0.00 91 1008.9
20260901070503 56 331 0.0 2.0 0.00 0.00 0.00 91 1009.0
20260901070011 56 269 1.0 2.0 0.00 0.00 0.00 92 1009.1
20260901065505 56 344 1.0 2.0 0.00 0.00 0.00 92 1009.1
20260901064505 56 314 1.0 1.0 0.00 0.00 0.00 91 1009.2
20260901064004 56 46 0.0 1.0 0.00 0.00 0.00 91 1009.1
20260901063505 56 314 0.0 1.0 0.00 0.00 0.00 91 1009.1
20260901062505 56 46 0.0 1.0 0.00 0.00 0.00 91 1008.9
20260901062005 56 89 0.0 1.0 0.00 0.00 0.00 90 1009.0
20260901061505 56 46 0.0 1.0 0.00 0.00 0.00 90 1009.1
20260901060504 57 269 1.0 2.0 0.00 0.00 0.00 90 1009.0
20260901060007 57 314 0.0 2.0 0.00 0.00 0.00 90 1009.0
20260901055504 57 303 1.0 2.0 0.00 0.00 0.00 90 1009.1
20260901055004 57 269 0.0 1.0 0.00 0.00 0.00 89 1009.1
20260901054505 57 314 0.0 1.0 0.00 0.00 0.00 89 1009.0
20260901054003 57 1 0.0 1.0 0.00 0.00 0.00 89 1009.1
20260901053004 57 314 1.0 2.0 0.00 0.00 0.00 89 1009.0
20260901052504 58 331 1.0 2.0 0.00 0.00 0.00 89 1009.1
20260901052004 58 269 0.0 1.0 0.00 0.00 0.00 88 1009.0
20260901051504 58 331 1.0 2.0 0.00 0.00 0.00 88 1009.0
20260901051004 58 178 0.0 2.0 0.00 0.00 0.00 88 1009.0
20260901050503 58 324 1.0 2.0 0.00 0.00 0.00 87 1009.0
20260901045503 58 340 1.0 1.0 0.00 0.00 0.00 87 1008.9
20260901045004 58 314 0.0 1.0 0.00 0.00 0.00 86 1009.0
20260901044005 59 331 0.0 1.0 0.00 0.00 0.00 86 1008.9
20260901043503 59 331 0.0 1.0 0.00 0.00 0.00 86 1009.0
20260901043007 59 314 0.0 1.0 0.00 0.00 0.00 85 1008.9
20260901042504 60 314 0.0 1.0 0.00 0.00 0.00 85 1009.0
20260901042005 60 46 0.0 1.0 0.00 0.00 0.00 84 1009.0
20260901041003 60 269 0.0 2.0 0.00 0.00 0.00 83 1008.9
20260901040503 61 314 0.0 2.0 0.00 0.00 0.00 83 1008.9
20260901040007 61 46 0.0 2.0 0.00 0.00 0.00 82 1009.0
20260901035504 61 314 1.0 2.0 0.00 0.00 0.00 82 1009.0
20260901035005 62 46 0.0 1.0 0.00 0.00 0.00 81 1008.9
20260901034504 62 314 1.0 1.0 0.00 0.00 0.00 80 1009.0
20260901033004 63 46 0.0 2.0 0.00 0.00 0.00 78 1008.9
20260901032004 64 46 0.0 2.0 0.00 0.00 0.00 77 1008.9
20260901031505 64 124 1.0 2.0 0.00 0.00 0.00 77 1008.9
20260901031004 64 46 0.0 2.0 0.00 0.00 0.00 75 1008.9
20260901030503 65 135 0.0 2.0 0.00 0.00 0.00 74 1008.9
20260901030007 65 178 0.0 2.0 0.00 0.00 0.00 74 1008.9
20260901025504 65 135 0.0 1.0 0.00 0.00 0.00 73 1009.0
20260901025004 66 161 0.0 1.0 0.00 0.00 0.00 71 1008.9
20260901024504 66 89 0.0 1.0 0.00 0.00 0.00 70 1009.0